#timestamp,LO_Frequency,Hit,StdDev 
1522537215.4,286046996.5,N
1522537235.2,286046998.3,N
1522537255.1,286046996.9,N
1522537256.0,286046996.9,N
1522537275.8,286046997.1,N
1522537295.6,286046997.4,N
1522537315.5,286046996.8,N
1522537335.3,286046999.2,N
1522537355.2,286046997.7,N
1522537375.9,286046995.4,N
1522537395.7,286046996.0,N
1522537415.6,286046996.0,N
1522537435.4,286046993.9,Y
1522537455.3,286046996.2,P
1522537475.1,286046994.6,P
1522537476.0,286046994.6,P
1522537495.8,286046995.8,N
1522537515.7,286046995.2,Y
1522537535.5,286047001.8,P
1522537555.4,286047003.1,N
1522537575.2,286047001.7,N
1522537595.0,286047000.5,N
1522537595.9,286047000.5,N
1522537615.8,286046998.4,N
1522537635.6,286046997.6,N
1522537655.5,286046993.7,N
1522537675.3,286046993.7,N
1522537695.1,286046995.9,N
1522537715.9,286046997.1,N
1522537735.7,286046996.8,N
1522537755.5,286046998.5,N
1522537775.4,286046998.8,N
1522537795.2,286046999.2,N
1522537815.1,286046996.7,N
1522537816.0,286046996.7,N
1522537835.8,286046994.9,N
1522537855.6,286046998.0,N
1522537875.5,286046999.6,N
1522537895.3,286046999.6,N
1522537915.2,286046996.8,N
1522537935.9,286046999.2,N
1522537955.7,286046996.6,N
1522537975.6,286046994.9,N
1522537995.4,286046995.9,N
1522538015.3,286046993.7,N
1522538035.1,286046994.7,N
1522538036.0,286046994.7,N
1522538055.8,286046994.4,N
1522538075.7,286046993.7,N
1522538095.5,286046997.9,N
1522538115.3,286046995.7,N
1522538135.2,286046996.2,N
1522538155.0,286046996.0,N
1522538155.9,286046996.0,N
1522538175.8,286046993.5,Y
1522538195.6,286046999.6,P
1522538215.4,286046998.7,N
1522538235.3,286046998.7,N
1522538255.1,286046997.3,N
1522538275.9,286046998.9,N
1522538295.7,286046999.3,N
1522538315.5,286046997.0,N
1522538335.4,286046997.6,N
1522538355.2,286046997.2,N
1522538375.1,286046995.9,Y
1522538376.0,286046995.9,P
1522538395.8,286046997.4,N
1522538415.6,286046996.7,P
1522538435.5,286046998.5,N
1522538455.3,286047001.0,N
1522538475.1,286046999.7,N
1522538495.9,286047000.1,N
1522538515.7,286047000.5,N
1522538535.6,286047002.6,N
1522538555.4,286047002.3,N
1522538575.2,286047002.5,N
1522538595.1,286047002.7,N
1522538596.0,286047002.7,N
1522538615.8,286046999.8,N
1522538635.6,286047002.8,N
1522538655.5,286047001.5,N
1522538675.3,286047003.2,N
1522538695.2,286047002.8,N
1522538715.9,286047002.2,N
1522538735.7,286047004.2,N
1522538755.6,286047001.8,N
1522538775.4,286047001.9,N
1522538795.3,286047003.8,N
1522538815.1,286047004.1,N
1522538816.0,286047004.1,N
1522538835.8,286047004.4,N
1522538855.7,286047004.0,N
1522538875.5,286047004.1,N
1522538895.3,286047003.2,N
1522538915.2,286047003.3,N
1522538935.0,286047005.5,N
1522538935.9,286047005.5,N
1522538955.8,286047003.1,N
1522538975.6,286047003.1,N
1522538995.4,286047003.3,N
1522539015.3,286047005.9,Y
1522539035.1,286047001.8,P
1522539055.9,286047004.1,P
1522539075.7,286047003.9,P
1522539095.5,286047004.2,Y
1522539115.4,286047002.7,P
1522539135.2,286046999.9,N
1522539155.1,286047002.4,N
1522539156.0,286047002.4,N
1522539175.8,286047000.6,N
1522539195.6,286047002.2,N
1522539215.5,286046999.7,N
1522539235.3,286047001.5,N
1522539255.1,286047002.3,N
1522539275.9,286047002.5,N
1522539295.7,286047002.4,N
1522539315.6,286047002.7,N
1522539335.4,286047002.3,N
1522539355.2,286047001.4,N
1522539375.1,286047001.5,N
1522539376.0,286047001.5,N
1522539395.8,286047003.9,Y
1522539415.7,286047000.3,P
1522539435.5,286046998.2,N
1522539455.3,286047001.1,N
1522539475.2,286046999.8,N
1522539495.0,286047002.5,N
1522539495.9,286047002.5,N
1522539515.8,286047000.1,N
1522539535.6,286047002.1,N
1522539555.4,286047002.3,N
1522539575.3,286047002.8,N
1522539595.1,286047002.4,N
1522539615.9,286047002.4,N
1522539635.7,286047000.2,N
1522539655.5,286047000.1,N
1522539675.4,286047002.2,N
1522539695.2,286047002.7,N
1522539715.0,286047000.1,N
1522539715.9,286047000.1,N
1522539735.8,286047001.7,N
1522539755.6,286047002.5,N
1522539775.5,286046999.7,N
1522539795.3,286047000.3,N
1522539815.1,286047000.0,N
1522539835.9,286047000.0,N
1522539855.7,286047000.4,N
1522539875.6,286047000.6,N
1522539895.4,286047000.0,N
1522539915.2,286046998.6,N
1522539935.1,286047000.7,N
1522539936.0,286047000.7,N
1522539955.8,286047000.9,N
1522539975.6,286047000.5,N
1522539995.5,286047000.4,N
1522540015.3,286046999.7,N
1522540035.2,286046999.9,N
1522540055.9,286047000.4,N
1522540075.7,286047000.6,N
1522540095.6,286047000.6,N
1522540115.4,286047000.9,N
1522540135.3,286047000.6,N
1522540155.1,286047000.2,N
1522540156.0,286047000.2,N
1522540175.8,286047000.6,N
1522540195.7,286046999.7,N
1522540215.5,286047000.6,N
1522540235.3,286046999.9,N
1522540255.2,286047002.8,Y
1522540275.0,286046999.8,P
1522540275.9,286046999.8,N
1522540295.8,286046999.9,N
1522540315.6,286047000.3,N
1522540335.4,286047000.2,N
1522540355.3,286047002.8,Y
1522540375.1,286047002.3,P
1522540395.9,286046999.7,N
1522540415.7,286046999.8,N
1522540435.5,286047000.2,N
1522540455.4,286047000.2,N
1522540475.2,286047000.4,N
1522540495.1,286047000.6,N
1522540496.0,286047000.6,N
1522540515.8,286047000.9,N
1522540535.6,286047003.5,Y
1522540555.5,286047004.4,P
1522540575.3,286047004.4,N
1522540595.2,286047004.2,N
1522540615.9,286047001.5,N
1522540635.7,286047001.7,N
1522540655.6,286047001.5,N
1522540675.4,286047001.9,N
1522540695.2,286047002.8,N
1522540715.1,286047000.9,N
1522540716.0,286047000.9,N
1522540735.8,286047000.7,N
1522540755.7,286047000.8,N
1522540775.5,286047000.0,N
1522540795.3,286047002.7,N
